Powrót do katalogu

GLOBALSTAR M066

AktywnyŁącznośćLEO
NORAD 32265·PAYLOAD·🇺🇸 United States

Wystrzelony Oct 20, 2007 z Baikonur Cosmodrome

Loading…

Następne Przeloty (najbliższe 24 godziny)

TLE

ŚwieżeSource: Space-Track

Epoka: Sep 14, 2026, 03:08 UTC

1 32265U 07048C   26257.13092222 -.00000129  00000-0 -28841-3 0  9990
2 32265  51.9579 162.5803 0004129 226.7706 280.6827 12.30390570871174

Śledź GLOBALSTAR M066 w czasie rzeczywistym z AllMySat

Download on the App Store